Tracking 19245 objects as of 14-Aug-2018
HD Live streaming from Space Station
objects crossing your sky now

EKRAN 7

Track EKRAN 7 now!
EKRAN 7 is classified as:


NORAD ID: 12564
Int'l Code: 1981-061A
Perigee: 35,775.8 km
Apogee: 35,808.1 km
Inclination: 12.7 °
Period: 1,436.0 minutes
Semi major axis: 42162 km
RCS: 3.9811 m2 (large)
Launch date: June 26, 1981
Source: Commonwealth of Independent States (former USSR) (CIS)
Launch site: TYURATAM MISSILE AND SPACE COMPLEX (TTMTR)
aabbcc
Your satellite tracking list
Your tracking list is empty




NASA's NSSDC Master Catalog

Two Line Element Set (TLE):
1 12564U 81061A   18225.84562333 +.00000080 +00000-0 +00000-0 0  9994
2 12564 012.6840 323.2743 0003832 349.9869 002.6967 01.00278276100788
Source of the keplerian elements: AFSPC